Regional Weather Roundup
Issued by NWS

Home | Current Version | Previous Version | Text Only | Print | Product List | Glossary Off
Versions: 1 2 3 4 5 6 7 8 9 10 11 12 13 14 15 16 17 18 19 20 21 22 23 24 25 26 27 28 29 30 31 32 33 34 35 36 37 38 39 40 41 42 43 44 45 46 47 48 49 50

000
ASUS43 KMKX 030813
RWRWI

WISCONSIN REGIONAL WEATHER ROUNDUP
NATIONAL WEATHER SERVICE MILWAUKEE/SULLIVAN WI
300 AM CDT WED JUN 03 2015

NOTE: "FAIR" INDICATES FEW OR NO CLOUDS BELOW 12,000 FEET WITH NO
SIGNIFICANT WEATHER AND/OR OBSTRUCTIONS TO VISIBILITY.

WIZ001-002-006>008-014>016-023>028-030900-
NORTHWEST WISCONSIN

CITY           SKY/WX    TMP DP  RH WIND       PRES   REMARKS
SUPERIOR ARPT  CLOUDY    45  40  83 CALM      29.90S
ASHLAND        MOCLDY    62  49  62 S10       29.92S
HAYWARD        CLOUDY    60  49  66 S8        29.92F
SIREN          CLOUDY    64  51  64 S9        29.90F
CUMBERLAND     MOCLDY    55  50  82 S9        29.93S
RICE LAKE      MOCLDY    59  49  69 SE8       29.94F
CHETEK         MOCLDY    58  50  74 SE8       29.94F
LADYSMITH      PTCLDY    57  48  72 SE3       29.98S
EAU CLAIRE     NOT AVBL
MENOMONIE      PTCLDY    57  51  80 E6        29.94F
NEW RICHMOND   MOCLDY    61  51  69 S12       29.91F
OSCEOLA        CLOUDY    63  53  69 SE8       29.93S
$$

WIZ003>005-009-010-017-018-030900-
NORTH CENTRAL WISCONSIN

CITY           SKY/WX    TMP DP  RH WIND       PRES   REMARKS
MANITOWISH WTR PTCLDY    54  45  70 S7        29.98S
ARBOR VITAE    PTCLDY    57  44  62 S5        29.99S
WOODRUFF       PTCLDY    57  44  62 S5        29.99S
RHINELANDER    PTCLDY    54  43  66 S5        30.01F
EAGLE RIVER    MOCLDY    53  40  62 S5        30.00F
LAND O LAKES   PTCLDY    55  42  59 S5        30.00F
PHILLIPS       MOCLDY    56  45  64 S7        29.97S
TOMAHAWK       PTCLDY    51  43  74 CALM      30.01S
MEDFORD        PTCLDY    53  46  75 SE7       30.00S
MERRILL        PTCLDY    54  46  73 S6        30.02F
$$

WIZ029-030-035-036-043>047-030900-
CENTRAL WISCONSIN

CITY           SKY/WX    TMP DP  RH WIND       PRES   REMARKS
WAUSAU         PTCLDY    54  46  74 SE5       30.01S
MOSINEE        PTCLDY    50  46  87 E5        30.03S
MARSHFIELD     CLEAR     53  46  77 S8        30.00F
STEVENS POINT  PTCLDY    53  44  70 S7        30.03S
WAUPACA        CLEAR     50  46  87 CALM      30.04F
WAUTOMA        NOT AVBL
WISC RAPIDS    CLEAR     53  45  74 S5        30.03S
CAMP DOUGLAS   CLEAR     44  44 100 SE3       30.00F
$$

WIZ011>013-019>022-031-037>040-048>050-030900-
NORTHEAST WISCONSIN

CITY           SKY/WX    TMP DP  RH WIND       PRES   REMARKS
ANTIGO         PTCLDY    49  44  81 S5        30.04S
SHAWANO        PTCLDY    53  38  56 S3        30.05S
OCONTO         PTCLDY    50  48  92 S6        30.05S
STURGEON BAY   PTCLDY    48  36  61 S10       30.08S
GREEN BAY      CLEAR     48  42  80 CALM      30.06S
MANITOWOC      NOT AVBL
APPLETON       PTCLDY    54  45  71 S7        30.05F
CLINTONVILLE   CLEAR     46  45  93 CALM      30.04S
OSHKOSH        PTCLDY    49  44  83 S8        30.04F
$$

WIZ032>034-041-042-053>061-030900-
SOUTHWEST WISCONSIN

CITY           SKY/WX    TMP DP  RH WIND       PRES   REMARKS
LA CROSSE      CLEAR     60  49  66 S6        29.98S
SPARTA         CLEAR     49  44  83 S3        30.00S
VIROQUA        CLEAR     58  47  68 S8        30.01S
BOSCOBEL       CLEAR     51  48  89 CALM      30.01F
PRAIRIE DU CHI PTCLDY    57  49  75 E5        30.00F
PLATTEVILLE    PTCLDY    58  49  71 SE8       30.03S
$$

WIZ056-057-062-063-064-067-068-030900-
SOUTH CENTRAL WISCONSIN

CITY           SKY/WX    TMP DP  RH WIND       PRES   REMARKS
REEDSBURG      PTCLDY    55  47  75 SE3       30.02S
BARABOO/DELLS  PTCLDY    54  46  72 CALM      30.03F
LONE ROCK      NOT AVBL
MINERAL POINT  PTCLDY    55  46  71 SE7       30.03F
MADISON        PTCLDY    58  48  69 S9        30.04F
MIDDLETON      PTCLDY    59  46  62 S6        30.05S
WATERTOWN      PTCLDY    51  47  87 SE3       30.06S
MONROE         PTCLDY    55  48  76 SE9       30.05S
JANESVILLE     PTCLDY    55  46  71 SE9       30.06S
$$

WIZ051-052-058>065-066-070>072-030900-
SOUTHEAST WISCONSIN

CITY           SKY/WX    TMP DP  RH WIND       PRES   REMARKS
MILWAUKEE      MOCLDY    49  42  77 S5        30.09F
WAUKESHA       PTCLDY    48  43  81 S3        30.09F
MILWAUKEE/TIMM PTCLDY    50  41  71 SE3       30.09F
RACINE         PTCLDY    48  42  80 S3        30.10F
BURLINGTON     PTCLDY    44  42  95 CALM      30.08F
KENOSHA        PTCLDY    49  43  80 S3        30.08F
FOND DU LAC    PTCLDY    50  45  83 S7        30.05F
SHEBOYGAN      PTCLDY    46  44  93 SW3       30.08F
WEST BEND      PTCLDY    48  43  81 CALM      30.08S
JUNEAU         PTCLDY    51  46  82 SE8       30.07S
$$

LSZ147-162-030900-
LAKE SUPERIOR

STATION/POSITION TIME  TEMP    WIND        PRES    WAVE
                       AIR SEA DIR/SP/G            HT/PER
                 (UTC) (F)     (DEG/KT/KT) (MB)    (FT/S)
W MID LAKE BUOY  0650   44 37  150/  6/  8   N/A     1
DEVILS ISLAND    0700   49      80/  5/  6   N/A
PORT WING        0640   44     300/  2/  3   N/A
SAXON HARBOR     0600   64     190/  2/  7   N/A
$$

LMZ867-665-643>646-030900-
LAKE MICHIGAN

STATION/POSITION TIME  TEMP    WIND        PRES    WAVE
                       AIR SEA DIR/SP/G            HT/PER
                 (UTC) (F)     (DEG/KT/KT) (MB)    (FT/S)
CHAMBERS ISLAND  0700   51     170/  4/  9   N/A
N MID LAKE BUOY  0650   42 37  160/  8/  8   N/A     0
SISTER BAY       0718   48     150/ 11/ 14   N/A
ALGOMA LAKESHORE 0709          210/  8/ 10   N/A
KEWAUNEE LAKESHO 0730   50     200/  6/  8   N/A
SHEBOYGAN LAKESH 0700   48     190/  6/  6   N/A
PORT WASHINGTON  0700   48        CALM       N/A
ATWATER BUOY     0700   49 46  130/  6/  6   N/A
MILWAUKEE LAKESH 0700   50     120/  3/  5   N/A
S MID LAKE BUOY  0650   46 38  120/  8/ 10   N/A
KENOSHA   LAKESH 0700   51     190/  4/  5   N/A
$$

TC  - TEMPERATURE IN CELSIUS
VSB - VISIBILITY IN STATUTE MILES
WCI - WIND CHILL INDEX
HX  - HEAT INDEX




USA.gov is the U.S. government's official web portal to all federal, state and local government web resources and services.